Wind_Speed
36 36 38 39 39 38 36 35 37 37 34 33 33 32 33 33 31 28 24 18 12 6 4 5 11 12 12 14 19 23 27 30 32 36 34 33 40 43 44 45 45 44 44
34 35 36 38 39 38 37 35 34 35 36 36 34 33 32 31 31 29 25 22 17 11 8 6 5 10 12 12 12 15 21 26 29 32 31 33 32 39 43 46 45 45 44
32 34 35 36 38 38 37 34 33 34 35 36 37 36 34 32 32 31 27 22 18 15 10 7 6 8 9 13 13 12 14 17 21 27 29 28 28 30 36 41 45 46 47
29 31 33 34 36 36 36 34 32 32 33 35 36 37 38 36 34 34 29 24 19 16 12 9 5 4 6 10 10 13 12 14 18 23 25 26 26 26 27 28 32 34 44
27 29 30 31 33 33 34 33 32 30 31 33 34 35 36 38 35 34 33 28 24 19 14 11 7 4 2 2 7 10 13 14 15 16 19 23 24 25 28 36 31 24 35
25 27 28 29 30 31 32 33 31 29 28 30 32 34 36 37 37 34 34 30 26 22 19 16 10 5 2 1 3 5 6 11 15 16 15 19 21 25 28 36 36 30 37
24 25 26 28 29 30 31 31 31 30 29 28 29 31 33 35 36 35 34 31 27 24 20 18 13 9 3 1 2 1 6 7 11 15 14 13 16 22 24 28 33 36 40
22 24 25 27 27 28 29 29 30 29 28 28 27 27 28 31 34 35 33 32 29 24 21 18 15 11 8 5 3 2 2 5 9 12 17 20 17 15 19 24 27 30 32
22 23 25 27 27 27 27 28 29 30 29 28 28 26 25 27 30 32 33 31 30 26 22 18 15 13 12 9 6 4 3 5 7 12 17 20 22 21 17 18 22 20 22
23 23 24 26 27 28 28 28 28 28 30 29 28 26 26 24 26 28 30 31 29 28 24 21 17 12 11 11 9 6 6 8 6 6 5 16 22 22 23 22 24 25 25
22 23 23 25 28 29 28 28 27 27 28 29 29 28 27 25 25 25 26 27 28 27 25 22 19 16 12 12 12 11 7 7 9 6 0 3 10 13 16 19 20 24 25
23 23 23 26 27 29 30 28 27 26 25 27 28 28 27 26 24 24 24 24 25 25 25 23 20 18 17 15 13 12 10 7 7 8 9 6 5 8 11 14 17 19 22
23 23 25 25 26 27 29 29 27 25 23 24 26 27 26 25 24 23 23 23 21 21 22 21 21 17 16 14 13 12 11 9 8 8 8 8 7 4 3 3 5 11 16
23 24 25 26 26 27 28 29 28 25 23 25 24 24 25 25 24 23 22 20 19 18 18 18 18 18 15 13 11 9 8 6 6 7 7 6 6 6 7 8 8 12 12
26 25 26 27 28 27 28 28 28 26 23 26 25 23 23 23 22 21 21 18 17 17 17 16 15 14 14 14 12 10 8 7 6 7 6 7 7 8 7 7 8 9 10
29 28 28 28 28 28 28 28 26 26 26 27 27 26 23 21 21 20 19 18 16 15 15 15 14 13 12 11 10 11 9 6 4 5 4 3 3 3 3 4 4 5 5
28 29 29 30 30 29 29 28 27 25 26 27 26 25 24 22 20 19 19 18 17 17 16 15 14 13 11 11 9 7 6 5 3 2 1 1 2 1 1 1 2 2 3
27 27 29 30 30 29 29 28 28 27 28 27 25 25 24 23 22 21 21 20 19 17 16 15 14 14 13 12 9 8 6 5 4 3 4 4 4 4 4 4 3 3 4
27 28 29 31 30 30 29 28 27 27 28 28 28 25 23 23 22 21 21 20 21 20 18 18 17 16 13 12 12 10 9 7 6 7 7 6 6 7 7 7 6 5 6
28 29 30 30 30 29 28 27 27 27 28 29 29 27 27 26 25 23 22 20 20 20 21 21 19 18 16 16 13 13 12 12 11 9 9 10 11 10 9 10 10 9 8
29 29 29 29 29 28 28 28 27 28 29 29 29 29 28 28 26 25 24 23 21 21 22 22 23 22 20 19 18 16 14 14 13 13 13 12 13 14 14 14 14 13 11
30 29 28 28 27 27 28 29 29 30 31 32 31 29 29 28 27 26 25 24 22 21 21 22 24 25 24 23 21 20 19 17 16 15 15 13 14 16 18 19 18 17 15
28 26 27 27 26 27 29 29 30 31 32 32 32 32 30 29 28 28 28 27 26 24 23 21 22 24 25 25 25 24 23 22 20 18 18 18 17 16 17 22 23 22 19
27 27 26 26 27 28 30 31 32 32 33 33 33 33 31 30 29 29 29 29 29 29 27 24 22 21 21 25 27 27 26 25 23 21 20 20 21 20 19 20 26 26 24
27 26 26 27 28 30 31 32 34 34 34 34 34 34 32 31 30 31 30 31 32 32 31 29 26 25 26 26 26 26 26 26 24 23 21 21 21 21 21 20 24 29 26
26 26 27 29 30 32 33 34 35 35 35 35 35 34 33 33 32 32 33 34 34 33 31 29 28 28 28 27 25 24 23 24 23 22 20 20 20 19 18 18 20 28 25
Wind_Direction
356 357 357 360 360 358 355 356 0 4 4 4 5 8 10 9 13 16 15 11 357 333 323 258 238 239 240 234 237 235 233 226 223 226 224 224 221 221 222 228 232 234 238
358 359 358 359 1 2 0 358 1 4 8 9 9 7 9 11 11 9 11 9 7 0 339 284 258 239 234 235 238 233 231 229 224 226 227 225 224 222 225 224 224 226 228
360 1 359 358 1 4 4 0 3 4 8 10 11 11 9 9 11 11 6 7 7 3 356 338 286 253 239 229 229 227 223 224 225 226 229 228 226 224 227 229 227 224 224
1 4 1 359 359 4 6 4 3 5 6 7 8 12 13 12 10 11 10 8 12 8 2 354 333 282 254 236 223 224 220 216 220 226 229 230 228 224 223 222 227 236 230
360 2 2 0 360 2 6 7 4 3 7 8 9 9 11 14 13 12 14 16 21 20 15 7 357 323 305 240 211 215 218 220 217 217 224 230 231 225 219 206 214 214 223
358 1 1 359 359 1 3 7 8 3 4 7 9 9 12 13 15 15 17 17 18 20 19 12 9 354 313 261 191 189 209 220 221 219 216 220 226 228 225 225 239 229 215
356 360 0 358 358 359 1 5 6 7 3 0 2 5 10 13 14 16 17 19 18 20 23 18 11 17 1 329 2 215 219 209 207 214 208 225 228 229 230 232 232 232 231
351 353 356 356 357 356 356 0 4 4 3 358 356 356 3 10 14 16 18 19 20 17 18 21 23 17 16 5 339 288 234 216 219 211 209 216 225 231 230 230 235 242 242
347 350 350 353 353 353 353 353 359 3 3 1 359 359 358 6 11 16 18 19 21 21 20 23 27 24 18 15 4 346 316 293 269 239 231 223 217 221 228 230 235 232 237
344 348 348 349 350 350 351 351 352 356 1 3 3 2 4 4 8 13 17 20 21 24 22 25 28 28 24 24 25 17 12 5 355 325 277 232 231 234 235 241 245 236 231
346 347 347 346 346 347 348 350 350 351 354 358 2 5 3 6 7 9 13 18 21 23 27 28 30 34 31 31 36 38 37 20 27 34 273 170 212 234 243 251 251 244 239
346 346 345 345 344 345 348 350 350 348 347 353 357 1 4 5 7 9 11 13 19 21 24 29 33 37 42 41 44 45 46 46 37 52 75 121 197 231 243 243 241 235 236
345 344 343 343 343 344 346 349 350 349 346 346 351 355 358 3 4 5 8 11 13 19 22 25 29 28 36 43 46 51 51 48 53 58 65 81 90 95 102 49 186 205 213
343 342 340 341 341 341 344 346 348 348 347 346 348 347 351 354 359 1 3 4 11 13 17 25 23 25 27 29 34 38 38 31 35 53 74 88 88 88 93 96 90 105 149
339 338 340 340 339 338 341 343 345 346 345 344 345 341 342 344 348 354 355 358 2 13 15 14 17 19 19 25 22 22 28 42 58 72 75 83 93 97 96 101 114 123 134
336 335 337 338 336 335 337 341 343 342 340 341 341 340 338 332 336 340 348 351 347 347 352 359 7 9 12 11 14 20 18 32 60 69 75 83 76 70 90 119 127 131 142
335 333 334 335 334 333 335 338 338 337 337 337 338 339 338 338 323 329 333 334 337 336 331 334 338 346 353 355 358 354 3 11 339 337 347 342 339 345 319 271 218 202 202
335 334 333 332 332 333 334 335 336 337 338 339 338 338 338 335 329 319 312 316 317 319 322 323 323 322 324 329 332 331 326 311 305 287 270 265 261 258 251 243 235 238 258
334 334 333 333 333 332 334 335 335 337 339 338 338 340 339 336 333 329 324 315 309 304 304 307 313 318 318 316 311 311 307 295 279 269 265 261 259 256 253 253 252 260 266
333 334 334 332 333 333 334 335 335 338 340 338 338 338 337 337 336 333 328 323 312 302 295 295 296 300 306 311 308 300 299 295 286 275 264 259 255 254 252 250 252 258 261
332 333 333 333 334 335 335 335 336 337 338 337 337 336 335 335 335 333 329 327 319 309 300 290 288 287 286 289 293 296 294 289 285 281 275 268 262 257 253 252 253 256 253
330 332 333 335 336 334 334 334 335 336 336 335 333 333 334 334 333 332 332 330 325 316 307 297 288 283 281 279 278 281 285 286 283 279 274 273 273 271 261 251 249 251 252
330 333 334 335 335 334 333 333 334 335 333 332 332 332 334 333 333 332 330 328 325 319 312 301 293 284 280 277 275 272 274 278 280 278 275 273 277 281 274 259 248 245 246
331 333 336 335 334 333 333 334 334 332 331 331 331 331 331 331 331 329 326 324 322 317 312 303 294 288 285 280 276 272 269 268 271 275 275 271 272 280 289 271 245 238 241
329 332 335 334 334 333 333 333 331 330 330 330 330 329 330 330 330 329 326 322 319 315 309 303 291 284 282 278 277 274 270 266 265 270 275 272 271 277 282 284 245 224 230
328 332 335 334 332 332 332 331 329 329 329 329 328 329 329 330 330 327 325 323 321 316 309 302 295 289 283 275 269 268 268 265 262 264 268 275 273 277 276 288 241 216 225
Height
5772 5764 5756 5747 5739 5729 5721 5713 5706 5697 5688 5680 5672 5664 5655 5646 5639 5631 5625 5621 5617 5614 5612 5611 5612 5613 5613 5614 5615 5617 5620 5622 5626 5631 5635 5638 5642 5648 5655 5661 5668 5675 5681
5770 5762 5755 5747 5738 5729 5720 5712 5705 5697 5689 5680 5672 5664 5656 5649 5640 5633 5627 5621 5617 5614 5611 5609 5609 5609 5610 5610 5611 5612 5614 5617 5621 5625 5629 5632 5634 5640 5646 5651 5658 5664 5670
5769 5761 5754 5746 5738 5729 5721 5712 5705 5697 5689 5681 5673 5665 5657 5649 5642 5634 5627 5621 5617 5613 5610 5608 5607 5606 5606 5607 5608 5609 5610 5613 5617 5620 5624 5627 5630 5634 5639 5645 5650 5654 5659
5768 5760 5753 5746 5739 5730 5722 5713 5705 5698 5690 5682 5674 5666 5658 5650 5642 5635 5628 5621 5616 5612 5609 5607 5605 5604 5604 5604 5605 5606 5607 5609 5613 5616 5618 5621 5625 5629 5634 5639 5644 5648 5651
5767 5760 5753 5746 5739 5731 5723 5714 5706 5698 5690 5683 5676 5668 5660 5652 5644 5636 5628 5622 5617 5613 5609 5607 5604 5603 5602 5602 5602 5603 5605 5607 5609 5611 5613 5616 5620 5624 5628 5631 5635 5640 5643
5765 5759 5752 5746 5739 5731 5723 5715 5707 5699 5691 5684 5677 5670 5663 5654 5646 5638 5631 5624 5619 5614 5610 5607 5604 5602 5601 5601 5601 5602 5602 5603 5605 5608 5610 5612 5615 5618 5622 5626 5628 5634 5639
5764 5757 5751 5744 5738 5731 5723 5715 5706 5699 5691 5685 5678 5671 5665 5657 5649 5641 5634 5628 5621 5616 5611 5608 5604 5603 5601 5600 5600 5600 5601 5602 5603 5605 5608 5610 5611 5614 5617 5620 5624 5627 5630
5761 5756 5750 5744 5737 5730 5723 5715 5708 5700 5692 5685 5679 5672 5666 5659 5652 5644 5637 5631 5624 5618 5614 5609 5606 5604 5602 5601 5600 5600 5600 5601 5602 5603 5605 5607 5609 5611 5612 5615 5618 5620 5624
5759 5754 5748 5742 5736 5729 5722 5715 5709 5701 5694 5687 5680 5674 5667 5660 5654 5647 5640 5633 5628 5622 5617 5612 5608 5605 5603 5601 5600 5599 5599 5600 5600 5601 5601 5603 5605 5608 5610 5612 5614 5617 5620
5758 5752 5746 5740 5734 5728 5721 5715 5708 5702 5695 5688 5681 5674 5668 5662 5656 5649 5643 5637 5631 5626 5620 5616 5611 5608 5605 5603 5601 5600 5599 5599 5598 5597 5597 5599 5601 5604 5606 5607 5609 5611 5614
5755 5749 5744 5738 5732 5726 5719 5713 5707 5701 5695 5688 5682 5676 5669 5663 5658 5652 5646 5640 5634 5629 5624 5620 5615 5612 5608 5605 5603 5601 5600 5599 5598 5596 5595 5596 5598 5601 5602 5603 5604 5606 5609
5752 5747 5742 5736 5730 5723 5717 5712 5705 5700 5694 5689 5682 5676 5671 5665 5659 5654 5648 5643 5637 5632 5628 5623 5620 5616 5612 5609 5606 5604 5602 5601 5599 5598 5597 5597 5598 5599 5599 5598 5598 5600 5604
5750 5744 5739 5733 5727 5720 5715 5709 5703 5698 5693 5688 5682 5676 5671 5666 5660 5655 5650 5645 5640 5636 5631 5627 5623 5620 5617 5614 5611 5608 5606 5604 5603 5601 5600 5599 5598 5599 5598 5597 5595 5596 5599
5747 5742 5736 5730 5724 5718 5712 5706 5701 5696 5691 5686 5681 5676 5671 5666 5660 5655 5651 5647 5642 5638 5634 5629 5626 5623 5620 5617 5614 5612 5610 5608 5605 5604 5603 5602 5601 5601 5600 5600 5600 5599 5600
5745 5739 5733 5727 5721 5716 5710 5704 5699 5694 5688 5684 5679 5675 5670 5665 5660 5656 5651 5647 5644 5639 5635 5632 5628 5625 5622 5619 5616 5613 5611 5609 5608 5606 5605 5605 5604 5604 5603 5603 5603 5604 5605
5743 5737 5730 5724 5719 5713 5708 5703 5697 5691 5686 5681 5676 5672 5667 5662 5658 5654 5651 5647 5644 5641 5637 5633 5630 5626 5623 5620 5617 5614 5612 5611 5610 5609 5608 5607 5606 5606 5605 5605 5605 5605 5606
5737 5733 5727 5721 5715 5710 5705 5699 5694 5689 5685 5679 5674 5668 5663 5659 5655 5652 5648 5645 5642 5639 5636 5633 5629 5626 5623 5621 5618 5615 5613 5611 5610 5609 5609 5608 5607 5606 5606 5606 5606 5606 5606
5733 5728 5724 5718 5712 5707 5702 5696 5691 5685 5680 5676 5671 5665 5660 5655 5651 5648 5645 5642 5639 5636 5633 5630 5627 5625 5622 5619 5617 5615 5613 5611 5610 5609 5609 5608 5607 5607 5606 5606 5606 5606 5606
5728 5724 5719 5714 5709 5703 5698 5693 5687 5682 5677 5672 5666 5662 5657 5652 5648 5644 5640 5636 5633 5630 5628 5626 5624 5622 5619 5617 5615 5613 5611 5610 5608 5607 5607 5606 5606 5605 5605 5605 5605 5605 5604
5725 5720 5714 5709 5704 5699 5694 5689 5684 5679 5673 5669 5663 5657 5652 5648 5643 5639 5635 5632 5628 5625 5622 5620 5619 5617 5615 5614 5612 5610 5608 5607 5605 5604 5603 5603 5603 5603 5603 5602 5602 5603 5603
5721 5715 5709 5704 5700 5695 5690 5685 5681 5675 5670 5665 5660 5654 5649 5643 5639 5634 5630 5625 5622 5619 5616 5614 5612 5611 5609 5608 5606 5605 5604 5602 5601 5600 5599 5599 5598 5598 5598 5599 5599 5599 5600
5717 5711 5705 5701 5696 5692 5687 5682 5677 5671 5666 5660 5655 5651 5645 5639 5634 5629 5625 5620 5616 5612 5609 5606 5604 5603 5602 5601 5600 5599 5598 5597 5596 5595 5595 5594 5593 5593 5593 5593 5594 5595 5596
5712 5707 5702 5697 5693 5688 5683 5678 5672 5667 5661 5656 5651 5645 5639 5634 5628 5623 5619 5614 5610 5606 5603 5599 5596 5594 5593 5592 5591 5591 5590 5590 5589 5589 5588 5588 5587 5587 5587 5587 5588 5589 5591
5709 5703 5699 5694 5689 5684 5678 5673 5668 5663 5657 5651 5645 5640 5634 5629 5623 5618 5613 5608 5603 5599 5595 5592 5589 5587 5584 5583 5582 5582 5582 5582 5581 5581 5581 5581 5581 5580 5579 5578 5579 5582 5585
5705 5699 5695 5690 5685 5680 5674 5669 5663 5657 5651 5645 5640 5634 5628 5623 5617 5611 5606 5601 5596 5591 5586 5582 5579 5577 5576 5574 5573 5572 5572 5573 5573 5573 5573 5573 5573 5573 5572 5570 5570 5574 5578
5700 5695 5690 5685 5680 5675 5669 5663 5658 5651 5645 5640 5634 5628 5622 5616 5610 5605 5599 5593 5587 5581 5576 5572 5569 5566 5564 5563 5563 5563 5563 5564 5565 5565 5565 5565 5565 5565 5565 5564 5562 5566 5571